Home > Weather > Melbourne > Past weeks

Flag for Australia Past Weather in Melbourne, Victoria, Australia — Yesterday and Last 2 Weeks

Now
46 °F

Clear.


Feels Like: 42 °F
Forecast: 44 / 59 °F
Wind: 9 mph from North

Location: Melbourne Airport

Current Time: Jun 27, 2016 at 9:23:19 PM

Latest Report: Jun 27, 2016 at 8:30 PM


Visibility: 10 mi

Pressure: 30.12 "Hg

Humidity: 87%

Dew Point: 43 °F

Location of MelbourneLocation

Past Weather in Melbourne — Graph

°F

Melbourne Temperature Yesterday

Maximum temperature yesterday: 50 °F (at 1:30 PM)
Minimum temperature yesterday: 36 °F (at 6:00 AM)
Average temperature yesterday: 42 °F

High & Low Weather Summary for the Past Weeks

 TemperatureHumidityPressure
High63 °F (Jun 15, 3:30 PM)100% (Jun 17, 12:52 PM)30.63 "Hg (Jun 17, 12:52 PM)
Low36 °F (Jun 26, 6:00 AM)49% (Jun 15, 3:30 PM)29.42 "Hg (Jun 21, 3:00 PM)
Average49 °F80%29.99 "Hg
* Reported Jun 12 8:00 PM — Jun 27 8:00 PM, Melbourne, Weather by CustomWeather, © 2016

Note: Actual official high and low records may vary slightly from our data, if they occured in-between our weather recording intervals... More about our weather records

Advertising

Melbourne Weather History for the Previous 24 Hours

Scroll right to see more
 ConditionsComfort  
Time TempWeatherWind HumidityBarometerVisibility
8:00 PM
Mon, Jun 27
46 °FClear.10 mph93%30.12 "Hg10 mi
7:30 PM48 °FClear.8 mph82%30.12 "Hg10 mi
7:00 PM48 °FClear.8 mph87%30.09 "Hg10 mi
6:30 PM48 °FPassing clouds.8 mph87%30.09 "HgN/A
6:00 PM50 °FScattered showers. Passing clouds.5 mph82%30.09 "HgN/A
5:30 PM50 °FPartly cloudy.5 mph82%30.09 "HgN/A
5:00 PM50 °FScattered showers. Partly cloudy.7 mph82%30.07 "HgN/A
4:30 PM50 °FScattered showers. Partly cloudy.7 mph88%30.07 "HgN/A
4:00 PM50 °FScattered showers. Broken clouds.7 mph88%30.07 "HgN/A
3:30 PM50 °FScattered showers. Overcast.6 mph88%30.07 "HgN/A
3:00 PM50 °FSprinkles. Overcast.6 mph88%30.04 "HgN/A
2:30 PM50 °FSprinkles. Overcast.1 mph88%30.04 "Hg4 mi
2:00 PM50 °FSprinkles. More clouds than sun.7 mph88%30.04 "Hg4 mi
1:30 PM48 °FScattered showers. Overcast.8 mph94%30.04 "HgN/A
1:00 PM48 °FScattered showers. Broken clouds.10 mph87%30.04 "HgN/A
12:30 PM50 °FSprinkles. Broken clouds.13 mph76%30.04 "HgN/A
12:00 PM50 °FScattered showers. Partly sunny.10 mph71%30.04 "HgN/A
11:30 AM48 °FScattered showers. Partly sunny.14 mph76%30.04 "HgN/A
11:00 AM48 °FPartly sunny.14 mph76%30.04 "HgN/A
10:00 AM46 °FPartly sunny.13 mph76%30.04 "HgN/A
9:30 AM45 °FScattered showers. Partly sunny.10 mph81%30.04 "HgN/A
9:00 AM45 °FScattered showers. Partly sunny.15 mph81%30.04 "HgN/A
8:30 AM45 °FScattered showers. Partly sunny.15 mph81%30.04 "HgN/A
8:00 AM45 °FSprinkles. Partly sunny.15 mph81%30.04 "HgN/A
7:30 AM45 °FSprinkles. Partly sunny.15 mph81%30.01 "HgN/A
7:00 AM45 °FPartly sunny.15 mph81%30.01 "HgN/A
6:30 AM45 °FScattered showers. Passing clouds.14 mph81%30.01 "HgN/A
6:00 AM45 °FSprinkles. Partly cloudy.13 mph81%30.01 "HgN/A
5:30 AM45 °FSprinkles. Partly cloudy.12 mph76%29.98 "HgN/A
5:00 AM45 °FPassing clouds.16 mph76%29.98 "HgN/A
4:00 AM45 °FClear.16 mph76%29.98 "Hg10 mi
3:00 AM43 °FClear.15 mph81%29.98 "Hg10 mi
2:00 AM43 °FClear.15 mph81%30.01 "Hg10 mi
1:30 AM43 °FClear.14 mph81%30.01 "Hg10 mi
1:00 AM43 °FClear.15 mph81%30.01 "Hg10 mi
12:30 AM43 °FClear.17 mph81%30.01 "Hg10 mi
12:00 AM43 °FClear.17 mph87%30.01 "Hg10 mi
11:30 PM
Sun, Jun 26
43 °FClear.14 mph87%30.01 "Hg10 mi
11:00 PM43 °FClear.15 mph81%30.01 "Hg10 mi
10:00 PM45 °FPassing clouds.14 mph76%30.01 "HgN/A
9:30 PM43 °FPassing clouds.15 mph87%30.01 "HgN/A
9:00 PM43 °FPassing clouds.13 mph87%30.04 "HgN/A
Weather by CustomWeather, © 2016

See weather overviewHow to use our weather pages